Theta_e
320 319 318 317 315 314 314 314 314 313 313 313 312 312 312 313 313 313 313 313 313 313 313 313 312 313 316 317 316 316 317 317 315 314 313 313 312 311 310 310 310 310 310 313 320 326 329 331 333 333 332 331 330 328 328 328 328 329 328 322 315 311
322 322 322 321 318 315 314 313 313 313 313 313 313 313 313 313 313 313 313 313 314 316 318 319 318 316 315 316 316 317 318 318 318 317 316 315 314 313 312 311 310 310 310 312 318 324 327 329 331 331 331 329 327 328 328 328 328 330 329 324 316 310
324 325 324 324 322 319 317 315 314 314 314 313 314 314 313 313 313 313 313 315 317 320 325 329 329 326 322 318 315 315 316 318 318 319 319 318 317 316 315 313 312 310 309 310 314 320 324 327 327 328 331 329 325 327 328 327 327 328 329 325 319 312
325 325 326 326 325 323 321 320 319 318 318 318 318 318 317 316 315 315 316 320 324 326 328 330 330 330 330 327 321 317 315 315 316 319 319 319 318 319 319 318 315 313 311 309 311 317 322 323 325 328 331 330 326 326 326 325 325 326 328 328 323 315
327 327 327 328 327 326 326 325 326 325 324 323 323 322 321 320 320 320 323 326 328 330 329 328 328 329 331 331 330 326 322 318 315 316 318 318 318 319 320 320 319 317 315 312 309 313 319 321 323 326 328 329 327 325 326 326 325 326 329 329 325 319
333 333 331 329 328 327 328 329 329 329 328 327 326 325 325 325 325 326 328 329 329 329 330 329 329 329 329 329 331 331 330 327 321 316 315 316 317 318 319 320 321 320 319 317 314 312 313 317 319 321 325 328 329 328 328 329 327 328 330 329 326 323
337 337 335 334 331 328 329 330 330 330 329 329 329 327 328 330 330 331 332 331 331 330 330 331 330 330 329 329 329 330 331 332 329 324 318 315 315 317 319 320 321 322 322 322 324 320 317 318 320 322 325 328 331 330 330 331 330 330 331 330 329 325
338 337 337 337 335 332 332 333 333 333 332 332 333 332 332 333 332 332 332 333 333 332 331 332 332 332 332 331 331 330 330 332 333 331 325 319 315 315 318 320 320 322 323 324 328 329 328 326 325 327 327 328 332 332 331 331 331 331 331 331 330 327
338 338 337 336 336 335 335 335 335 335 335 335 334 334 334 334 333 332 332 332 333 333 333 332 332 333 333 333 332 332 331 331 332 332 331 326 320 315 315 318 320 322 323 325 328 332 334 333 332 332 330 329 331 332 332 332 332 332 331 331 331 330
338 337 336 335 335 336 336 336 336 336 336 335 335 334 334 334 333 332 332 332 333 333 333 333 332 332 333 333 332 332 331 331 331 332 332 331 327 322 318 319 321 322 323 325 327 332 336 335 334 334 332 331 332 332 331 332 332 332 332 331 331 330
338 337 336 335 335 335 336 336 335 335 335 335 335 335 334 334 333 333 333 333 332 332 332 332 332 331 332 332 332 331 331 331 330 330 331 332 331 329 325 323 323 323 324 324 325 330 334 335 334 334 333 332 333 332 332 331 331 332 332 331 331 330
337 337 336 335 335 334 335 335 335 335 334 334 334 334 333 332 332 332 333 333 332 331 330 330 330 330 330 331 330 330 330 329 329 330 331 332 332 331 329 328 327 326 326 326 326 328 331 333 333 334 333 332 332 333 332 331 330 331 332 331 331 330
336 336 336 336 334 333 333 334 334 334 332 331 330 331 330 330 330 331 331 331 330 330 329 329 329 329 329 329 329 329 329 328 328 329 330 331 332 332 331 331 330 329 329 328 328 329 331 332 332 332 333 332 332 332 332 332 331 331 331 331 331 330
336 335 335 336 334 333 332 332 331 330 330 330 329 330 330 330 331 332 331 330 330 330 330 330 329 329 329 328 329 329 329 328 329 329 329 330 331 332 331 331 331 331 331 330 329 329 329 330 331 330 331 332 332 331 331 332 331 331 332 332 331 330
336 335 335 335 334 333 332 331 330 330 332 333 332 332 331 331 331 331 330 330 330 331 331 331 330 329 329 328 328 328 328 327 328 329 329 330 331 331 331 331 332 332 332 331 330 329 328 328 329 329 330 332 332 331 332 331 331 332 332 332 330 329
336 336 335 334 334 334 333 332 332 333 334 335 333 332 331 331 331 329 328 328 329 330 331 331 331 330 330 330 330 329 329 329 328 328 328 329 330 330 331 331 331 331 331 331 331 330 330 329 329 329 329 331 332 331 331 331 331 331 332 331 329 328
336 335 335 335 335 334 333 333 333 333 334 334 333 332 332 331 330 328 327 327 327 328 330 331 331 331 331 331 331 331 330 330 329 328 327 328 328 329 329 329 329 329 330 331 331 331 330 330 330 330 329 331 332 331 330 330 331 332 332 331 329 328
336 336 335 335 336 334 333 333 333 333 333 333 333 333 333 332 330 328 327 327 326 328 330 331 331 331 331 331 331 332 332 331 331 330 329 329 328 328 329 329 328 328 329 330 331 331 331 331 330 330 330 330 333 332 330 330 331 332 332 332 331 330
337 337 337 336 336 335 335 335 335 334 334 333 333 333 333 332 331 329 328 328 328 329 329 330 331 332 332 332 332 332 332 332 332 331 331 330 330 330 330 329 329 328 328 328 329 328 329 330 331 331 330 330 332 332 331 331 331 331 331 331 332 332
337 337 337 337 336 336 336 336 336 335 334 334 334 333 333 333 332 331 330 330 330 330 330 329 330 332 332 333 333 333 333 333 333 332 331 330 330 330 330 330 330 329 328 327 327 326 327 329 330 331 331 331 331 332 332 332 332 332 331 330 331 332
337 337 337 337 336 336 336 335 335 335 335 335 334 333 332 332 332 332 331 331 331 331 331 330 330 331 332 333 333 334 334 333 333 333 332 331 330 330 330 331 331 331 330 329 328 328 328 329 331 331 332 332 331 331 331 332 332 332 332 331 330 331
337 337 337 337 336 336 336 334 334 334 334 334 334 333 332 332 332 332 332 331 331 332 332 332 332 332 332 333 333 333 334 334 335 334 332 331 331 331 332 331 331 331 332 331 331 330 330 331 331 331 331 331 331 330 330 331 332 332 332 332 331 331
337 337 337 337 336 336 336 335 334 334 334 333 333 333 332 331 331 331 331 331 331 331 332 332 332 332 333 333 333 333 333 335 335 331 328 330 331 330 331 332 332 332 333 333 332 332 331 331 331 331 332 331 331 330 330 330 331 331 331 332 331 331
337 337 337 336 336 336 335 336 335 334 334 334 333 333 331 330 331 331 330 330 331 331 331 331 330 331 332 333 333 334 334 334 334 330 328 330 330 330 330 331 332 332 333 333 333 331 331 331 331 332 332 332 331 330 330 330 330 330 330 331 331 331
336 336 336 335 335 336 336 336 336 335 335 335 335 333 332 331 331 331 331 331 331 331 331 330 329 330 331 332 333 333 334 333 333 332 331 331 331 331 330 331 331 332 332 332 332 331 330 330 330 331 332 332 331 330 330 330 329 329 329 329 331 331
335 335 335 336 336 336 336 337 336 336 335 335 335 335 334 333 333 332 332 331 331 331 331 330 330 331 331 332 332 333 333 333 333 332 332 332 332 332 331 331 331 332 332 332 332 331 330 330 330 331 331 332 332 331 330 330 330 329 329 329 330 331
333 333 334 335 335 335 335 335 335 335 335 334 334 334 334 334 334 334 333 332 332 331 331 330 330 331 331 332 332 333 333 333 333 332 332 333 333 333 332 332 332 332 331 332 332 332 331 331 331 331 331 332 332 331 331 331 330 330 329 329 329 330
331 332 332 333 334 334 334 334 334 334 334 334 333 333 333 334 334 334 334 333 332 332 331 330 330 330 331 332 332 332 332 332 332 331 332 332 333 333 332 332 332 332 332 332 332 332 332 332 332 331 331 332 332 332 331 331 331 330 330 329 329 329
329 329 329 330 332 332 332 332 333 333 333 333 333 332 332 332 332 332 333 333 332 332 332 331 331 331 332 332 332 332 332 332 331 332 332 332 332 332 332 332 331 331 331 332 332 332 332 331 331 331 331 331 331 331 331 331 331 331 330 329 329 328
325 325 326 327 329 330 330 330 331 331 331 332 331 331 331 331 330 331 331 332 331 331 331 331 331 332 332 332 332 332 332 332 332 332 332 332 332 332 331 331 331 331 331 331 331 331 331 331 331 331 331 331 331 331 331 331 331 331 330 329 329 328
321 322 323 325 326 328 328 328 329 329 330 330 330 330 329 329 328 329 330 330 330 329 329 329 330 331 331 330 331 331 331 331 331 331 331 331 331 331 331 331 331 331 330 330 330 330 330 331 331 330 331 331 331 331 331 331 331 331 331 330 330 328
318 319 320 320 322 324 326 327 327 327 327 328 328 327 327 327 327 327 327 327 327 328 329 329 329 329 329 329 329 329 329 329 330 330 330 330 330 330 330 330 330 329 329 329 329 329 330 330 330 330 331 331 331 331 331 331 331 331 331 330 330 329
317 317 317 318 318 319 322 324 325 325 326 326 325 325 325 325 324 324 324 324 324 325 327 327 327 327 328 328 327 328 328 329 329 329 330 329 329 329 329 329 329 328 328 328 327 327 328 329 329 330 330 330 331 331 331 331 331 331 331 330 329 329
317 316 316 316 317 317 318 319 321 323 323 324 323 323 322 322 322 322 322 322 322 323 324 325 325 326 326 326 326 327 328 328 328 329 329 328 328 328 328 328 328 328 328 327 326 326 326 327 328 329 330 330 330 331 330 330 330 331 330 330 329 329
317 316 316 315 316 316 316 316 317 319 320 321 321 321 321 321 321 321 321 322 322 322 322 323 324 324 324 324 325 326 326 327 327 328 328 328 328 327 327 326 326 326 326 326 325 325 325 326 327 328 329 329 329 330 330 330 330 330 330 330 329 329
316 316 315 315 315 315 314 315 315 316 317 317 318 318 319 319 320 321 321 322 322 322 322 322 323 323 323 324 324 324 324 325 326 327 327 326 325 324 324 324 324 324 324 324 324 324 325 326 327 328 328 329 329 329 330 330 330 330 330 330 329 329
316 315 315 314 314 313 313 313 313 314 314 315 316 316 317 317 318 319 319 320 320 320 321 321 322 322 322 322 323 323 323 323 324 325 324 323 322 323 323 324 324 324 324 324 324 325 325 326 327 327 328 329 329 329 329 330 330 330 330 330 329 329
Wind_Speed
15 14 13 13 12 12 12 11 11 11 11 11 10 10 11 11 10 10 10 9 8 8 7 7 7 8 7 6 5 4 4 5 6 6 6 7 7 7 8 8 8 8 9 14 17 18 19 18 16 13 9 8 8 6 4 2 2 4 6 7 6 5
14 13 13 12 12 12 11 11 11 10 10 10 10 10 11 11 11 11 10 10 10 8 7 5 6 6 6 6 5 4 4 4 5 6 6 6 6 6 7 7 8 8 8 11 16 17 17 18 17 14 10 9 9 6 4 3 3 4 7 8 7 6
14 13 12 12 12 12 12 12 11 11 10 10 9 10 11 11 11 11 11 10 9 8 7 5 4 4 4 5 5 4 4 4 4 5 5 6 6 6 6 6 7 8 8 10 13 16 17 17 17 15 11 10 9 6 4 3 2 4 7 8 8 7
13 13 12 12 12 12 12 12 12 11 10 10 10 9 10 9 9 10 10 8 8 8 7 5 4 3 2 3 4 4 4 5 6 6 6 6 6 6 6 6 7 7 8 9 11 14 16 16 16 14 12 10 9 7 6 5 3 3 6 9 10 9
12 12 11 11 12 12 12 11 11 10 10 10 9 9 9 9 9 9 8 7 7 7 7 6 5 3 2 2 3 3 4 4 6 7 8 8 7 7 6 7 7 8 8 9 10 13 14 15 14 12 11 10 10 9 8 6 4 4 7 11 11 10
12 12 11 11 11 11 11 10 9 9 9 9 9 10 9 8 8 8 8 7 7 7 7 6 5 4 3 4 5 4 4 4 5 7 9 10 9 9 8 8 8 9 9 9 10 12 13 13 12 10 10 11 10 10 8 6 5 5 9 11 11 10
12 12 11 11 10 11 10 9 9 8 9 9 8 9 8 8 8 8 8 7 8 7 6 6 5 5 5 6 6 7 7 6 5 7 8 10 11 10 10 10 10 11 11 11 10 11 12 12 11 8 8 11 10 9 9 7 6 7 9 11 10 10
11 11 11 11 11 11 10 9 9 8 8 8 8 8 8 8 8 8 8 8 8 7 7 6 6 6 7 7 7 7 8 8 7 7 7 9 11 12 12 12 12 12 12 12 12 11 12 12 11 9 7 10 9 8 10 9 8 8 11 12 12 10
12 11 11 11 11 12 11 10 10 9 8 8 7 8 8 7 8 9 8 8 7 8 8 8 7 7 8 9 9 9 8 8 9 9 8 8 10 12 12 13 14 14 12 12 13 13 13 13 12 10 8 9 9 9 10 11 10 11 12 13 13 12
12 11 11 11 11 11 10 9 9 9 9 8 7 7 7 6 8 9 8 7 7 8 9 9 9 9 10 10 10 10 10 9 10 10 9 9 10 11 12 12 14 14 14 13 15 15 14 13 12 12 10 10 10 11 12 13 13 12 13 13 13 13
12 12 12 11 11 10 9 9 8 8 8 7 7 7 6 7 8 8 8 7 8 8 8 8 9 10 10 10 10 10 10 10 10 10 10 10 10 11 12 13 13 13 14 14 15 17 16 15 14 13 13 13 13 13 14 15 15 14 14 14 14 14
13 12 11 10 10 9 8 8 8 7 6 6 6 5 5 6 6 7 7 8 9 9 9 8 8 8 9 9 10 9 10 10 10 10 11 11 11 11 12 13 14 13 13 14 15 16 18 18 16 15 15 17 16 14 15 17 18 17 16 17 16 15
12 11 10 9 9 9 8 8 7 7 5 5 5 4 5 5 5 6 6 7 8 8 8 8 7 7 8 9 10 10 10 10 10 11 12 12 12 12 13 14 15 15 14 14 16 17 18 20 19 18 18 19 18 16 16 18 20 20 19 20 20 18
11 10 9 9 8 7 7 6 6 5 5 5 4 4 4 5 5 5 5 5 6 7 7 7 8 8 9 10 10 10 10 10 10 11 12 13 14 14 14 15 16 16 17 18 19 19 20 21 21 21 20 20 20 18 18 20 21 23 23 23 23 21
9 8 7 7 7 6 4 4 3 3 5 5 4 4 4 5 5 4 4 5 5 6 7 8 8 9 10 11 11 11 10 10 10 11 12 13 14 16 17 17 17 18 18 19 20 20 21 22 22 22 22 22 22 20 19 21 23 24 24 23 24 22
8 7 7 6 6 5 2 2 1 1 3 3 3 4 5 5 4 4 5 5 6 7 8 9 9 10 11 11 12 12 11 10 11 12 12 13 15 16 17 18 18 19 19 20 20 20 20 21 22 22 22 23 24 24 22 21 22 24 24 22 22 22
8 7 7 7 6 4 3 3 3 3 4 4 5 5 6 7 6 6 6 6 6 7 8 9 10 10 11 11 12 12 12 11 12 12 13 14 15 16 17 18 19 20 21 21 21 21 20 21 21 21 23 23 25 28 26 23 21 22 23 23 22 22
8 7 7 7 6 4 4 5 5 5 5 6 7 7 7 8 6 6 7 7 8 9 9 10 10 12 12 12 13 13 12 12 12 13 13 14 15 16 17 18 19 20 21 22 22 21 21 21 22 22 23 23 25 28 27 26 25 22 21 21 21 22
7 6 6 6 6 6 6 7 8 7 7 8 8 8 8 8 8 8 7 8 10 11 11 12 12 13 14 14 14 14 13 13 14 14 14 14 15 16 17 19 20 21 21 23 23 23 22 21 22 24 24 25 26 27 27 28 27 25 24 22 20 21
8 7 7 7 7 7 8 8 9 8 7 8 9 9 9 8 8 9 10 11 12 12 13 14 15 15 15 16 16 15 14 13 14 15 15 15 15 17 18 19 20 21 22 23 24 24 23 22 23 25 26 25 27 28 29 29 29 29 28 26 24 23
10 8 8 8 7 8 9 9 10 9 8 8 9 10 10 8 8 9 11 12 13 13 14 15 15 16 16 17 17 17 15 14 14 14 15 17 17 17 18 19 20 20 22 23 24 24 23 23 24 26 26 26 28 30 31 31 31 32 30 28 27 26
10 10 10 10 10 10 9 9 10 9 9 8 9 10 10 9 10 11 11 12 13 14 14 15 16 17 17 17 17 16 15 15 14 14 17 19 19 18 18 19 20 21 21 22 24 23 23 24 26 28 27 27 29 30 32 33 33 33 31 29 29 29
8 9 10 10 10 10 10 10 10 9 8 8 9 10 9 9 10 11 12 13 14 14 14 15 16 17 17 17 17 17 15 14 12 12 16 18 18 18 19 20 20 21 22 22 23 23 23 24 26 28 27 26 28 28 30 32 34 35 34 32 31 30
8 7 7 8 9 9 10 10 10 10 9 9 9 9 9 10 11 11 12 13 14 14 14 15 15 16 17 17 17 17 15 14 13 13 15 16 16 17 18 19 21 21 22 23 24 23 22 23 25 27 26 26 26 24 25 28 31 32 33 33 33 31
9 9 7 7 8 9 10 10 10 10 10 9 9 9 10 11 11 11 11 12 12 13 14 14 15 16 18 18 18 18 17 17 16 16 16 17 17 17 18 20 21 22 23 24 25 25 24 24 25 26 27 27 24 21 24 27 27 28 29 30 32 32
9 10 9 8 8 9 9 11 11 10 10 9 8 8 9 10 11 12 13 13 12 12 14 15 15 16 17 17 17 18 18 19 19 19 19 19 19 19 20 21 22 23 23 24 25 26 26 26 26 27 28 30 28 27 28 27 24 24 25 26 29 32
9 11 11 11 10 10 9 9 10 8 7 7 6 6 6 6 8 10 13 14 13 13 14 14 14 15 15 15 15 16 17 18 20 19 20 20 20 21 21 22 23 23 23 24 25 26 28 28 28 30 30 31 31 32 33 32 29 25 23 23 25 29
14 15 15 15 14 13 12 9 8 7 5 5 5 5 5 5 6 7 10 11 11 12 12 12 13 14 14 14 14 15 15 17 19 18 19 20 20 20 21 22 22 23 24 25 26 28 29 29 30 32 31 31 31 32 34 36 36 32 27 23 23 25
16 17 16 17 17 16 15 14 12 10 8 7 6 6 6 7 7 7 8 8 8 9 9 10 11 12 12 12 13 15 15 16 18 17 18 19 20 20 20 22 23 24 26 27 28 29 31 31 31 31 31 31 32 32 33 35 36 35 33 28 25 26
12 13 13 15 17 18 17 16 15 13 12 11 11 11 11 11 11 10 8 7 7 8 8 9 10 10 10 10 10 12 14 15 16 16 18 19 20 21 21 22 23 25 26 27 28 28 30 31 30 29 29 30 32 33 32 34 35 35 35 33 27 25
4 4 7 10 14 16 17 17 16 16 15 14 14 15 15 15 15 13 11 10 10 10 9 9 10 10 11 11 11 11 11 12 14 15 17 18 19 20 21 22 23 25 26 27 28 28 29 30 30 29 29 30 32 33 34 35 35 33 34 36 32 27
8 7 5 2 4 8 13 16 16 16 16 16 16 16 16 16 16 14 13 13 13 12 11 11 11 12 12 12 12 12 12 13 13 14 15 17 18 19 20 22 23 25 27 28 28 28 29 30 31 31 30 30 31 32 34 35 34 33 33 35 34 30
11 12 12 10 8 4 4 9 13 15 16 16 16 16 15 15 14 14 13 13 13 12 12 12 12 12 12 11 12 13 13 13 13 14 15 16 18 19 21 22 24 27 28 28 28 28 28 30 31 32 31 31 31 32 32 32 32 33 34 32 31 30
11 13 13 13 11 9 6 2 5 9 12 13 14 13 13 12 11 11 12 12 11 11 11 11 11 12 12 13 13 14 15 15 16 16 16 18 19 20 22 24 26 28 29 29 28 28 28 29 30 31 32 31 31 32 32 31 32 34 34 30 28 29
11 12 13 14 13 12 10 7 4 1 5 7 8 9 9 9 8 9 9 8 9 10 11 11 12 12 13 15 16 17 18 18 18 19 20 21 22 23 25 27 29 30 31 30 28 28 29 29 29 30 31 31 31 32 32 32 33 34 32 28 27 27
12 13 14 14 15 15 14 12 10 7 4 3 4 5 6 6 6 7 8 8 8 8 10 11 13 14 15 17 19 20 21 21 21 21 22 23 24 27 29 30 31 32 32 30 28 28 28 27 27 27 27 28 30 32 32 31 32 33 31 27 26 25
13 14 14 14 14 15 15 14 14 12 9 7 6 4 4 4 4 6 7 8 8 9 11 12 13 15 16 17 17 19 20 21 22 21 22 22 24 26 27 25 24 25 26 25 25 25 25 24 25 25 25 27 29 31 30 28 29 30 29 27 26 26
Wind_Direction
144 140 140 137 139 143 147 153 155 159 159 162 166 165 167 167 166 166 171 171 164 160 149 146 152 166 177 183 190 181 168 159 152 149 145 143 143 144 145 147 149 146 148 159 168 168 165 161 155 158 171 187 204 210 218 266 323 341 336 329 321 310
145 141 141 138 138 140 145 150 154 161 162 165 166 166 167 167 170 169 172 170 163 159 151 143 140 151 170 182 197 203 199 185 172 165 161 158 157 157 157 156 158 159 156 161 170 175 174 171 165 162 173 201 214 208 211 267 309 330 331 325 318 310
147 146 146 142 141 144 148 150 154 162 163 165 162 163 167 171 174 170 171 170 167 167 161 157 147 145 157 169 185 205 222 221 211 196 185 177 172 173 169 166 167 168 168 168 173 179 181 178 174 168 176 211 224 214 222 256 290 320 326 322 312 305
151 152 153 149 149 153 155 156 160 168 169 166 164 164 169 177 175 168 171 176 178 181 185 189 189 191 176 167 172 191 214 230 235 228 218 207 196 194 185 176 175 175 177 175 174 179 183 183 181 174 180 215 237 238 242 253 262 301 319 320 311 298
159 159 158 156 157 161 165 166 169 175 178 171 169 172 176 180 175 170 178 186 185 188 201 214 215 217 238 236 214 199 201 217 233 237 236 229 217 214 207 191 184 183 180 178 176 179 184 186 185 179 184 210 238 249 255 262 266 305 319 315 310 301
165 162 160 161 163 171 175 177 179 184 183 177 176 178 184 189 184 183 191 199 199 203 211 221 231 227 241 264 275 267 241 224 227 236 239 238 229 221 220 209 194 191 183 177 179 183 186 188 190 184 184 202 229 253 265 277 284 314 316 308 308 306
169 164 162 163 168 179 183 187 190 194 188 182 183 187 200 208 203 198 201 209 213 222 227 235 246 248 251 259 274 283 280 264 245 240 240 243 239 224 219 218 204 198 194 189 189 189 190 191 198 195 187 197 219 250 262 274 289 305 306 303 306 309
170 166 164 165 173 183 189 190 193 200 195 190 190 197 214 223 219 211 213 224 231 238 244 251 254 259 263 258 262 277 283 274 265 257 243 242 244 233 219 216 211 205 203 205 207 204 204 204 205 209 194 188 208 247 262 267 277 287 291 291 295 302
170 167 165 166 170 181 188 188 191 199 200 201 202 206 214 224 227 223 225 233 243 252 253 257 262 267 269 267 267 275 278 269 264 263 253 242 242 240 229 220 214 209 206 211 217 217 219 219 213 214 204 189 207 244 259 264 270 276 280 280 281 287
167 165 167 164 164 175 184 185 190 196 201 205 207 213 216 224 231 233 239 242 249 256 257 259 264 270 271 271 272 275 276 267 261 261 261 253 243 243 240 231 221 213 208 210 219 223 225 229 225 222 216 207 221 239 249 259 267 271 272 270 271 278
165 167 170 165 163 172 179 183 190 197 202 208 213 222 228 236 236 238 247 255 261 261 257 256 258 266 269 269 271 273 273 271 268 263 261 261 252 247 242 237 233 227 219 214 219 225 229 235 237 235 228 222 227 235 241 251 260 263 265 263 266 275
163 168 172 170 168 170 173 177 184 193 210 219 223 231 238 247 242 241 251 259 264 262 263 263 264 272 273 272 272 273 271 269 271 267 261 260 256 252 244 239 241 243 238 231 229 230 234 242 248 246 234 226 228 237 240 244 252 255 259 262 265 272
161 166 171 175 175 171 171 174 177 187 210 223 227 238 246 252 250 253 261 262 262 265 273 279 284 288 283 280 278 277 275 271 272 268 263 262 260 257 252 248 247 250 254 255 252 248 248 253 259 256 241 228 226 237 243 244 250 254 256 260 264 269
155 161 169 176 178 175 174 175 175 178 191 207 220 238 243 244 251 261 268 269 271 277 285 288 291 292 289 288 287 287 286 284 281 274 267 265 265 265 263 261 258 257 259 261 262 260 259 261 264 261 248 234 227 235 246 247 249 252 253 256 261 263
149 153 164 171 174 179 182 174 169 173 181 190 203 232 255 258 256 259 268 280 290 294 295 293 290 288 288 291 292 293 294 292 286 278 272 267 266 268 269 270 268 267 265 264 264 264 263 263 265 263 252 237 229 232 245 250 248 249 250 251 253 253
149 147 152 162 173 183 199 199 196 216 209 214 227 249 275 285 279 275 285 296 307 308 302 296 291 287 288 290 294 297 298 295 286 279 274 270 268 268 270 272 274 276 276 275 272 270 268 265 265 265 256 242 233 233 243 251 247 244 245 244 244 242
158 153 151 161 178 193 212 242 246 240 241 256 273 278 289 298 299 297 298 292 294 303 300 294 291 289 289 289 291 294 296 296 291 282 276 274 274 275 275 275 277 280 281 280 278 277 275 269 265 264 259 249 240 238 244 249 244 239 240 242 242 240
160 158 158 165 180 200 220 249 255 253 255 266 276 275 284 291 284 283 288 276 269 279 289 292 293 292 291 290 289 290 292 294 293 288 284 282 283 283 281 280 280 280 278 276 276 277 277 272 267 263 261 254 248 247 248 249 246 241 239 241 242 244
159 161 168 180 190 203 222 245 254 262 265 268 276 275 279 279 267 263 267 266 266 273 287 295 298 297 296 294 292 292 294 296 296 294 290 287 285 283 281 280 279 277 274 272 271 273 273 271 267 264 262 257 254 255 254 252 252 249 247 246 244 244
167 174 180 191 201 207 216 234 247 258 263 266 274 280 282 277 268 265 268 273 274 276 284 292 296 296 296 297 298 299 300 301 298 294 291 288 281 276 274 273 274 273 271 270 270 271 271 269 267 265 263 259 257 257 258 257 257 255 255 256 251 246
175 185 190 198 213 218 217 224 233 241 247 257 269 280 289 291 282 274 273 277 278 279 282 288 293 293 295 299 302 305 306 307 303 298 294 287 278 273 272 272 272 272 271 272 273 274 274 272 270 267 264 261 258 257 257 258 258 257 256 255 253 249
174 187 197 205 214 219 222 225 230 233 237 246 258 270 281 289 285 280 278 278 278 279 281 286 291 293 296 299 302 304 306 306 305 303 296 287 283 282 280 277 275 274 274 275 276 276 277 275 273 271 269 266 263 262 259 256 256 258 255 253 251 249
170 188 204 216 219 221 226 231 235 235 241 249 254 262 267 269 272 275 279 279 278 278 277 280 288 295 298 299 300 298 297 299 299 301 295 289 289 286 282 280 278 280 281 280 279 276 275 274 275 275 272 268 267 268 265 259 255 255 256 256 254 250
179 188 207 222 226 232 233 236 238 233 236 248 253 258 259 260 264 266 268 272 275 278 279 282 289 296 299 301 299 296 294 293 293 296 295 292 290 286 284 283 282 283 283 282 283 283 279 274 272 271 269 267 268 267 265 263 260 258 257 256 255 252
195 193 207 220 224 235 238 238 239 234 234 243 251 253 251 253 258 259 259 261 266 274 279 281 285 292 297 299 299 298 295 291 289 291 293 293 292 290 287 285 284 284 283 283 284 286 285 279 273 269 265 263 262 259 260 265 266 263 260 255 254 252
207 208 215 219 222 233 238 237 236 235 233 237 245 249 252 256 259 263 261 259 262 272 278 278 281 287 291 294 295 295 293 291 291 292 292 292 291 290 287 286 286 284 283 282 282 282 283 281 278 274 268 263 259 257 261 264 263 262 263 260 254 248
239 238 235 233 233 238 245 242 236 235 230 227 231 231 240 252 263 270 267 266 268 270 277 279 280 283 287 292 292 290 290 292 293 291 291 291 290 289 288 289 288 285 283 281 280 280 280 281 278 275 273 268 264 261 261 260 257 257 259 257 251 247
247 247 247 245 243 244 250 250 239 232 226 222 222 220 229 242 256 267 268 273 275 271 275 280 281 283 288 294 294 291 292 294 294 294 295 295 293 292 291 290 289 288 286 283 281 280 280 280 278 277 278 273 268 264 261 260 258 255 250 249 249 247
247 245 244 242 243 244 247 251 248 245 244 241 238 236 242 246 249 257 261 265 268 267 271 274 277 284 290 298 303 300 297 295 295 296 298 298 297 297 296 294 293 292 291 288 286 283 281 281 280 279 280 276 271 265 261 261 259 253 247 246 245 243
261 254 244 238 238 237 239 244 246 249 252 252 253 252 252 254 253 255 255 255 258 258 260 261 264 269 277 286 292 295 297 298 297 296 297 299 297 296 295 295 294 294 294 293 292 289 285 283 282 279 278 276 271 265 261 259 256 251 245 244 241 234
314 283 255 245 240 236 235 237 242 248 252 256 259 259 260 263 262 259 255 255 259 259 261 265 263 260 262 268 271 276 286 293 296 298 298 300 299 298 298 297 296 295 296 296 296 294 290 285 281 276 275 273 270 266 263 258 257 255 249 244 238 229
41 46 36 353 286 253 237 232 235 240 246 253 261 265 269 272 272 271 267 264 262 258 258 260 264 265 264 270 277 278 281 285 289 293 296 299 299 298 297 295 294 294 295 295 295 295 294 290 283 276 271 270 270 268 264 261 260 260 255 247 241 234
61 52 45 42 33 9 263 239 235 237 242 250 258 266 271 275 278 281 280 278 275 269 265 262 266 273 275 282 290 292 294 295 294 293 293 294 293 294 295 294 294 292 291 293 295 295 294 292 289 281 273 268 268 268 265 264 262 259 255 248 243 240
69 55 43 38 34 34 31 341 252 242 243 247 253 259 265 273 281 286 287 289 290 288 285 281 283 287 289 292 296 298 298 298 298 296 295 294 292 294 296 295 294 291 291 293 295 296 293 293 292 285 277 270 266 266 267 267 265 260 255 245 238 238
76 62 47 39 30 27 31 33 32 272 250 254 260 265 274 283 286 289 293 296 298 299 298 297 297 297 296 293 292 291 291 292 295 296 297 298 297 297 296 294 292 291 291 293 294 293 291 290 289 285 279 273 266 265 266 266 265 262 255 245 237 236
80 67 53 44 34 28 29 34 44 49 37 356 323 306 299 296 285 284 289 291 294 295 293 292 292 293 294 294 293 291 290 290 289 292 297 300 299 296 294 292 292 291 290 291 292 291 289 288 287 284 279 273 267 265 265 266 267 264 254 244 238 237
85 75 59 47 39 36 38 41 42 42 40 32 20 9 346 324 302 289 288 288 288 287 284 283 283 287 291 293 295 295 293 291 289 292 297 300 300 298 296 295 297 297 296 296 294 290 288 287 285 283 279 273 268 266 265 266 268 266 256 244 238 237